Location: Dumpton Point
(51.3500°N, 1.4433°E)
Time: 22:21:16
(UTC+00:00)

Vanguard 1 - Pass Details

Date: 01 October 2022
Orbit: 650 x 3831 km, 34.2° (Epoch: 03 December)

Event Time Altitude Azimuth Distance (km) Brightness Sun altitude
Rises 12:58:42 0° 213° (SSW) 7,403 15.6 33.1°
Reaches altitude 10° 13:05:53 10° 201° (SSW) 5,870 15.5 32.6°
Maximum altitude 13:16:38 21° 161° (SSE) 3,993 14.0 31.9°
Drops below altitude 10° 13:24:10 10° 117° (ESE) 3,981 13.2 31.3°
Sets 13:27:44 0° 102° (ESE) 4,531 13.3 31.0°
